Location: Vihti�l�
(61.3833°N, 23.0667°E)
Time: 04:17:17
(UTC+00:00)

Genesis I - Pass Details

Date: 29 November 2020
Orbit: 494 x 527 km, 64.5° (Epoch: 19 January)

Event Time Altitude Azimuth Distance (km) Brightness Sun altitude
Rises 05:27:30 0° 230° (SW) 2,592 6.5 -10.7°
Reaches altitude 10° 05:29:39 10° 227° (SW) 1,716 5.6 -10.5°
Maximum altitude 05:33:27 66° 146° (SE) 559 3.6 -10.1°
Drops below altitude 10° 05:37:19 10° 64° (ENE) 1,744 6.4 -9.7°
Sets 05:39:31 0° 61° (ENE) 2,639 7.3 -9.4°
